User: anonymous   Login
Location: Camp Creek
(33.9000°N, 111.8167°W)
Time: 15:43:48
(UTC-07:00)
Language:

Cosmos 1656 - Orbit

View from above orbital plane
View from above orbital plane
View from above satellite
View from above satellite

Ground track
Ground track

The orbit data is extracted from the following two-line orbital elements,

1 15755U 85042A   14352.68363146 -.00000071  00000-0 -10807-4 0  9275
2 15755 071.1127 123.5556 0034805 023.4887 336.7819 14.20327959531269
Epoch (UTC): 18 December 2014 16:24:25
Eccentricity: 0.0034805
inclination: 71.1127°
perigee height: 799 km
apogee height: 849 km
right ascension of ascending node: 123.5556°
argument of perigee: 23.4887°
revolutions per day: 14.20327959
mean anomaly at epoch: 336.7819°
orbit number at epoch: 53126

The dashed part of the orbit path shows where the satellite is in the earth's shadow,  

DLR